| time (UTC) | temp C | wind direction | speed KPH | gust KPH | rain 1hr cm | rain 24hr cm | rain mn cm | humidity % | barometer mb |
| 20260507120432 | 28 | 315 | 12.9 | 24.1 | 0.00 | 0.03 | 0.03 | 28 | 999.3 |
| 20260507113042 | 28 | 315 | 11.3 | 19.3 | 0.00 | 0.03 | 0.03 | 31 | 999.4 |
| 20260507110042 | 29 | 315 | 9.7 | 16.1 | 0.00 | 0.03 | 0.03 | 31 | 999.6 |
| 20260507103042 | 28 | 315 | 8.0 | 16.1 | 0.00 | 0.03 | 0.03 | 32 | 1000.0 |
| 20260507100042 | 27 | 315 | 8.0 | 16.1 | 0.00 | 0.03 | 0.03 | 36 | 1000.5 |
| 20260507093041 | 26 | 315 | 8.0 | 16.1 | 0.00 | 0.03 | 0.03 | 41 | 1000.7 |
| 20260507090041 | 24 | 315 | 8.0 | 12.9 | 0.00 | 0.03 | 0.03 | 47 | 1001.0 |
| 20260507080413 | 21 | 315 | 8.0 | 14.5 | 0.00 | 0.03 | 0.03 | 57 | 1001.4 |
| 20260507073414 | 21 | 315 | 8.0 | 12.9 | 0.00 | 0.03 | 0.03 | 57 | 1001.3 |
| 20260507070041 | 21 | 225 | 6.4 | 12.9 | 0.00 | 0.03 | 0.03 | 62 | 1001.1 |
| 20260507063041 | 19 | 293 | 4.8 | 17.7 | 0.03 | 0.03 | 0.03 | 65 | 1001.2 |
| 20260507060041 | 16 | 248 | 9.7 | 29.0 | 0.03 | 0.03 | 0.03 | 69 | 1001.0 |
| 20260507053041 | 17 | 248 | 9.7 | 16.1 | 0.00 | 0.00 | 0.00 | 62 | 1001.5 |
| 20260507050042 | 17 | 203 | 8.0 | 16.1 | 0.00 | 0.00 | 0.00 | 61 | 1001.6 |
| 20260507043041 | 16 | 203 | 6.4 | 14.5 | 0.00 | 0.00 | 0.00 | 61 | 1001.3 |
| 20260507040041 | 14 | 90 | 6.4 | 17.7 | 0.00 | 0.00 | 0.00 | 69 | 1001.8 |
| 20260507033040 | 13 | 270 | 3.2 | 20.9 | 0.00 | 0.00 | 0.00 | 74 | 1001.1 |
| 20260507030041 | 11 | 270 | 1.6 | 6.4 | 0.00 | 0.00 | 0.00 | 79 | 1000.3 |
| 20260507023041 | 11 | 315 | 4.8 | 11.3 | 0.00 | 0.00 | 0.00 | 77 | 1000.3 |
| 20260507020046 | 10 | 315 | 9.7 | 14.5 | 0.00 | 0.00 | 0.00 | 78 | 999.9 |
| 20260507013041 | 10 | 315 | 9.7 | 14.5 | 0.00 | 0.00 | 0.00 | 77 | 999.8 |
| 20260507010040 | 10 | 315 | 9.7 | 14.5 | 0.00 | 0.00 | 0.00 | 77 | 999.8 |
| 20260507003101 | 11 | 293 | 8.0 | 12.9 | 0.00 | 0.00 | 0.00 | 76 | 999.8 |
| 20260507000101 | 11 | 293 | 6.4 | 9.7 | 0.00 | 0.00 | 0.00 | 76 | 999.7 |
| 20260506233041 | 11 | 293 | 4.8 | 8.0 | 0.00 | 0.00 | 0.00 | 75 | 999.6 |
| 20260506223041 | 12 | 270 | 1.6 | 6.4 | 0.00 | 0.00 | 0.00 | 71 | 999.7 |
| 20260506220040 | 12 | 270 | 1.6 | 6.4 | 0.00 | 0.00 | 0.00 | 75 | 999.7 |
| 20260506213042 | 12 | 270 | 1.6 | 6.4 | 0.00 | 0.00 | 0.00 | 75 | 999.7 |
| 20260506210413 | 12 | 270 | 1.6 | 6.4 | 0.00 | 0.00 | 0.00 | 74 | 999.6 |
| 20260506203041 | 13 | 270 | 1.6 | 6.4 | 0.00 | 0.00 | 0.00 | 71 | 999.4 |
| 20260506200041 | 13 | 270 | 1.6 | 3.2 | 0.00 | 0.00 | 0.00 | 66 | 999.3 |
| 20260506193041 | 13 | 270 | 1.6 | 4.8 | 0.00 | 0.00 | 0.00 | 70 | 999.2 |
| 20260506190432 | 13 | 270 | 1.6 | 6.4 | 0.00 | 0.00 | 0.00 | 69 | 999.2 |
| 20260506183041 | 13 | 0.0 | 6.4 | 0.00 | 0.00 | 0.00 | 73 | 999.3 | |
| 20260506180100 | 13 | 270 | 1.6 | 3.2 | 0.00 | 0.00 | 0.00 | 70 | 999.2 |
| 20260506173040 | 15 | 0.0 | 4.8 | 0.00 | 0.00 | 0.00 | 64 | 999.0 | |
| 20260506170040 | 17 | 270 | 1.6 | 6.4 | 0.00 | 0.00 | 0.00 | 58 | 999.0 |
| 20260506163040 | 18 | 270 | 1.6 | 4.8 | 0.00 | 0.00 | 0.00 | 57 | 998.7 |
| 20260506160041 | 21 | 270 | 1.6 | 6.4 | 0.00 | 0.00 | 0.00 | 52 | 998.6 |
| 20260506153040 | 23 | 293 | 1.6 | 4.8 | 0.00 | 0.00 | 0.00 | 46 | 998.5 |
| 20260506150040 | 25 | 338 | 1.6 | 4.8 | 0.00 | 0.00 | 0.00 | 42 | 998.5 |
| 20260506143040 | 26 | 315 | 1.6 | 11.3 | 0.00 | 0.00 | 0.00 | 31 | 998.5 |
| 20260506140040 | 25 | 315 | 4.8 | 14.5 | 0.00 | 0.00 | 0.00 | 37 | 998.5 |
| 20260506133042 | 26 | 315 | 6.4 | 11.3 | 0.00 | 0.00 | 0.00 | 36 | 998.6 |
| 20260506130042 | 26 | 315 | 6.4 | 14.5 | 0.00 | 0.00 | 0.00 | 30 | 998.8 |
| 20260506123042 | 26 | 293 | 3.2 | 9.7 | 0.00 | 0.00 | 0.00 | 29 | 998.9 |